This is the latest recevied weather packets stored in our database for station/object KO4ZGL-13. If no packets are shown the sender has not sent any weather packets the latest 10 day(s).
| Time | Temp. | Humidity | Pressure | Rain* | Wind** | Luminosity | Snow |
|---|---|---|---|---|---|---|---|
| 1778220096 | 16.11° C | 99% | 1013.9 hPa | 0 mm | - | 0 W/m² | - |
| 1778219791 | 17.22° C | 99% | 1013.9 hPa | 0 mm | - | 0 W/m² | - |
| 1778219488 | 17.22° C | 99% | 1013.8 hPa | 0 mm | - | 0 W/m² | - |
| 1778219185 | 17.78° C | 99% | 1013.7 hPa | 0 mm | - | 0 W/m² | - |
| 1778218882 | 18.33° C | 99% | 1013.7 hPa | 0 mm | - | 0 W/m² | - |
| 1778218579 | 18.33° C | 99% | 1013.5 hPa | 0 mm | - | 0 W/m² | - |
| 1778218277 | 18.89° C | 99% | 1013.5 hPa | 0 mm | - | 0 W/m² | - |
| 1778217974 | 18.89° C | 99% | 1013.6 hPa | 0 mm | - | 0 W/m² | - |
| 1778217671 | 18.89° C | 99% | 1013.4 hPa | 0 mm | - | 0 W/m² | - |
| 1778217367 | 18.89° C | 99% | 1013.3 hPa | 0 mm | - | 0 W/m² | - |
| 1778217063 | 19.44° C | 99% | 1013 hPa | 0 mm | - | 0 W/m² | - |
| 1778216759 | 19.44° C | 99% | 1013.1 hPa | 0 mm | - | 0 W/m² | - |
| 1778216457 | 19.44° C | 99% | 1013.1 hPa | 0 mm | - | 0 W/m² | - |
| 1778216152 | 20° C | 99% | 1013 hPa | 0 mm | - | 0 W/m² | - |
| 1778215850 | 20° C | 99% | 1012.9 hPa | 0 mm | - | 0 W/m² | - |
| 1778215548 | 20° C | 99% | 1013 hPa | 0 mm | - | 0 W/m² | - |
| 1778215243 | 20° C | 99% | 1012.7 hPa | 0 mm | - | 0 W/m² | - |
| 1778214940 | 20° C | 99% | 1012.7 hPa | 0 mm | - | 0 W/m² | - |
| 1778214638 | 20° C | 99% | 1012.8 hPa | 0 mm | - | 0 W/m² | - |
| 1778214334 | 20.56° C | 99% | 1012.8 hPa | 0 mm | - | 0 W/m² | - |
| 1778214032 | 20.56° C | 99% | 1012.8 hPa | 0 mm | - | 0 W/m² | - |
| 1778213728 | 20.56° C | 99% | 1012.6 hPa | 0 mm | - | 0 W/m² | - |
| 1778213424 | 20.56° C | 99% | 1012.6 hPa | 0 mm | - | 0 W/m² | - |
| 1778213121 | 20.56° C | 99% | 1012.5 hPa | 0 mm | - | 0 W/m² | - |
| 1778212819 | 20.56° C | 99% | 1012.6 hPa | 0 mm | - | 0 W/m² | - |
* Rain latest hour (hover to see other rain measurements)
** Current wind speed in m/s (hover to see current wind gust speed)